This is the latest recevied weather packets stored in our database for station/object K0NV. If no packets are shown the sender has not sent any weather packets the latest 10 day(s).
| Time | Temp. | Humidity | Pressure | Rain* | Wind** | Luminosity | Snow |
|---|---|---|---|---|---|---|---|
| 1777847545 | 25.56° C | 38% | 1013.4 hPa | 0 mm | - | 304 W/m² | - |
| 1777847242 | 25.56° C | 39% | 1013.5 hPa | 0 mm | - | 360 W/m² | - |
| 1777846939 | 25.56° C | 39% | 1013.6 hPa | 0 mm | - | 336 W/m² | - |
| 1777846638 | 25.56° C | 39% | 1013.7 hPa | 0 mm | - | 374 W/m² | - |
| 1777846335 | 25.56° C | 40% | 1013.9 hPa | 0 mm | - | 402 W/m² | - |
| 1777846031 | 25.56° C | 39% | 1013.9 hPa | 0 mm | - | 411 W/m² | - |
| 1777845728 | 25.56° C | 40% | 1013.8 hPa | 0 mm | - | 423 W/m² | - |
| 1777845425 | 25.56° C | 39% | 1014.1 hPa | 0 mm | - | 436 W/m² | - |
| 1777845122 | 25.56° C | 39% | 1014 hPa | 0 mm | - | 461 W/m² | - |
| 1777844821 | 26.11° C | 39% | 1014 hPa | 0 mm | - | 427 W/m² | - |
| 1777844515 | 26.11° C | 39% | 1013.9 hPa | 0 mm | - | 494 W/m² | - |
| 1777844210 | 26.11° C | 38% | 1014 hPa | 0 mm | - | 519 W/m² | - |
| 1777843906 | 26.11° C | 40% | 1014.1 hPa | 0 mm | - | 531 W/m² | - |
| 1777843603 | 25.56° C | 40% | 1014.1 hPa | 0 mm | - | 537 W/m² | - |
| 1777843301 | 25.56° C | 41% | 1014.5 hPa | 0 mm | - | 544 W/m² | - |
| 1777842998 | 25.56° C | 40% | 1014.1 hPa | 0 mm | - | 555 W/m² | - |
| 1777842693 | 25.56° C | 39% | 1014.2 hPa | 0 mm | - | 574 W/m² | - |
| 1777842390 | 25.56° C | 37% | 1014.6 hPa | 0 mm | - | 587 W/m² | - |
| 1777842087 | 25.56° C | 38% | 1014.6 hPa | 0 mm | - | 236 W/m² | - |
| 1777841783 | 25.56° C | 40% | 1014.7 hPa | 0 mm | - | 484 W/m² | - |
| 1777841479 | 25.56° C | 39% | 1014.6 hPa | 0 mm | - | 620 W/m² | - |
| 1777841176 | 25.56° C | 39% | 1014.8 hPa | 0 mm | - | 641 W/m² | - |
| 1777840874 | 25.56° C | 37% | 1014.8 hPa | 0 mm | - | 664 W/m² | - |
| 1777840570 | 25.56° C | 38% | 1015 hPa | 0 mm | - | 656 W/m² | - |
| 1777840267 | 26.67° C | 38% | 1014.9 hPa | 0 mm | - | 636 W/m² | - |
* Rain latest hour (hover to see other rain measurements)
** Current wind speed in m/s (hover to see current wind gust speed)